Tracking 29892 objects as of 21-Nov-2024
HD Live streaming from Space Station
objects crossing your sky now

STARLINK-5800

Track STARLINK-5800 now!
10-day predictions
STARLINK-5800 is classified as:


NORAD ID: 56041
Int'l Code: 2023-042BH
Perigee: 565.3 km
Apogee: 567.2 km
Inclination: 43.0 °
Period: 95.8 minutes
Semi major axis: 6937 km
RCS: Unknown
Launch date: March 24, 2022
Source: United States (US)
Launch site: AIR FORCE EASTERN TEST RANGE (AFETR)
Your satellite tracking list
Your tracking list is empty




NASA's NSSDC Master Catalog

Two Line Element Set (TLE):
1 56041U 23042BH  24325.38446256 -.00000498  00000-0 -21823-4 0  9994
2 56041  43.0032  87.1794 0001372 265.6398  94.4287 15.02533944 91862
Source of the keplerian elements: AFSPC